Probability
0 0 0 0 0 0 0 0 0 0 0 0 0 0 0 0 0 0 0 0 0 0 0 0 0 0 0 0 0 0 0 0 0 0 0 0 0 0 0 0 0 0 0
0 0 0 0 0 0 0 0 0 0 0 0 0 0 0 0 0 0 0 0 0 0 0 0 0 0 0 0 0 0 0 0 0 0 0 0 0 0 0 0 0 0 0
0 0 0 0 0 0 0 0 0 0 0 0 0 0 0 0 0 0 0 0 0 0 0 0 0 0 0 0 0 0 0 0 0 0 0 0 0 0 0 0 0 0 0
0 0 0 0 0 0 0 0 0 0 0 0 0 0 0 0 0 0 0 0 0 0 0 0 0 0 0 0 0 0 0 0 0 0 0 0 0 0 0 0 0 0 0
0 0 0 0 0 0 0 0 0 0 0 0 0 0 0 0 0 0 0 0 0 0 0 0 0 0 0 0 0 0 0 0 0 0 0 0 0 0 0 0 0 0 0
0 0 0 0 0 0 0 0 0 0 0 0 0 0 0 0 0 0 0 0 0 0 0 0 0 0 0 0 0 0 0 0 0 0 0 0 0 0 0 0 0 0 0
0 0 0 0 0 0 0 0 0 0 0 0 0 0 0 0 0 0 0 0 0 0 0 0 0 0 0 0 0 0 0 0 0 0 0 0 0 0 0 0 0 0 0
0 0 0 0 0 0 0 0 0 0 0 0 0 0 0 0 0 0 0 0 0 0 0 0 0 0 0 0 0 0 0 0 0 0 0 0 0 0 0 0 0 0 0
0 0 0 0 0 0 0 0 0 0 0 0 0 0 0 0 0 0 0 0 0 0 0 0 0 0 0 0 0 0 0 0 0 0 0 0 0 0 0 0 0 0 0
0 0 0 0 0 0 0 0 0 0 0 0 0 0 0 0 0 0 0 0 0 0 0 0 0 0 0 0 0 0 0 0 0 0 0 0 0 0 0 0 0 0 0
0 0 0 0 0 0 0 0 0 0 0 0 0 0 0 0 0 0 0 0 0 0 0 0 0 0 0 0 0 0 0 0 0 0 0 0 0 0 0 0 0 0 0
0 0 0 0 0 0 0 0 0 0 0 0 0 0 0 0 0 0 0 0 0 0 0 0 0 0 0 0 0 0 0 0 0 0 0 0 0 0 0 0 0 0 0
0 0 0 0 0 0 0 0 0 0 0 0 0 0 0 0 0 0 0 0 0 0 0 0 0 0 0 0 0 0 0 0 0 0 0 0 0 0 0 0 0 0 0
0 0 0 0 0 0 0 0 0 0 0 0 0 0 0 0 0 0 0 0 0 0 0 0 0 0 0 0 0 0 0 0 0 0 0 0 0 0 0 0 0 0 0
0 0 0 0 0 0 0 0 0 0 0 0 0 0 0 0 0 0 0 0 0 0 0 0 0 0 0 0 0 0 0 0 0 0 0 0 0 0 0 0 0 0 0
0 0 0 0 0 0 0 0 0 0 0 0 0 0 0 0 0 0 0 0 0 0 0 0 0 0 0 0 0 0 0 0 0 0 0 0 0 0 0 0 0 0 0
0 0 0 0 0 0 0 0 0 0 0 0 0 0 0 0 0 0 0 0 0 0 0 0 0 0 0 0 0 0 0 0 0 0 0 0 0 0 0 0 0 0 0
0 0 0 0 0 0 0 0 0 0 0 0 0 0 0 0 0 0 0 0 0 0 0 0 0 0 0 0 0 0 0 0 0 0 0 0 0 0 0 0 0 0 0
0 0 0 0 0 0 0 0 0 0 0 0 0 0 0 0 0 0 0 0 0 0 0 0 0 0 0 0 0 0 0 0 0 0 0 0 0 0 0 0 0 0 0
0 0 0 0 0 0 0 0 0 0 0 0 0 0 0 0 0 0 0 0 0 0 0 0 0 0 0 0 0 0 0 0 0 0 0 0 0 0 0 0 0 0 0
0 0 0 0 0 0 0 0 0 0 0 0 0 0 0 0 0 0 0 0 0 0 0 0 0 0 0 0 0 0 0 0 0 0 0 0 0 0 0 0 0 0 0
0 0 0 0 0 0 0 0 0 0 0 0 0 0 0 0 0 0 0 0 0 0 0 0 0 0 0 0 0 0 0 0 0 0 0 0 0 0 0 0 0 0 0
0 0 0 0 0 0 0 0 0 0 0 0 0 0 0 0 0 0 0 0 0 0 0 0 0 0 0 0 0 0 0 0 0 0 0 0 0 0 0 0 0 0 0
0 0 0 0 0 0 0 0 0 0 0 0 0 0 0 0 0 0 0 0 0 0 0 0 0 0 0 0 0 0 0 0 0 0 0 0 0 0 0 0 0 0 0
0 0 0 0 0 0 0 0 0 0 0 0 0 0 0 0 0 0 0 0 0 0 0 0 0 0 0 0 0 0 0 0 0 0 0 0 0 0 0 0 0 0 0
0 0 0 0 0 0 0 0 0 0 0 0 0 0 0 0 0 0 0 0 0 0 0 0 0 0 0 0 0 0 0 0 0 0 0 0 0 0 0 0 0 0 0
Wind_Speed
13 12 12 11 11 11 10 10 8 7 6 6 6 5 4 4 4 3 4 3 4 4 4 5 5 5 4 4 4 5 5 5 7 6 5 6 7 7 7 6 7 7 8
12 12 11 11 10 10 10 8 7 6 6 5 5 4 4 4 4 4 5 5 5 5 5 5 5 5 5 5 4 5 5 5 6 8 6 6 7 7 8 8 9 9 7
12 11 10 10 10 9 8 7 7 6 6 5 4 4 4 4 5 6 7 6 6 5 5 5 6 5 5 4 5 5 5 6 5 7 8 6 6 7 8 8 9 7 9
11 11 10 9 9 8 8 7 6 5 5 4 4 5 5 7 9 10 9 8 7 6 6 6 6 6 5 5 6 6 6 6 7 7 7 7 6 7 6 6 7 6 7
10 10 9 8 8 7 7 6 6 5 5 4 5 5 5 7 8 9 8 9 9 8 7 6 7 8 8 5 6 5 7 7 8 8 8 8 8 7 7 6 8 8 8
9 9 8 7 7 6 6 6 5 5 5 5 6 6 6 7 7 9 8 8 9 9 8 7 8 7 7 6 8 10 10 10 10 9 9 9 10 8 7 7 8 8 7
8 8 7 6 6 6 6 6 5 5 4 4 5 4 5 6 6 7 10 9 9 7 7 6 8 8 7 6 9 12 12 14 13 9 10 10 10 9 8 9 8 9 9
7 6 6 6 6 5 5 4 4 3 3 3 3 4 3 5 3 5 12 9 8 6 7 7 7 6 5 6 10 11 10 10 10 8 7 8 9 8 7 8 9 9 9
6 5 5 5 5 4 4 3 3 3 3 3 3 4 3 3 1 4 9 9 7 7 7 8 7 6 5 8 10 11 11 10 11 12 12 12 14 13 10 6 7 7 7
5 5 5 5 4 3 3 3 3 2 3 3 3 3 3 2 2 2 7 7 8 8 7 7 6 5 8 10 9 10 11 11 11 12 11 10 8 7 7 5 5 6 6
4 4 4 2 1 3 2 2 2 2 2 3 3 3 2 2 1 2 5 6 8 9 8 7 5 6 11 13 11 9 11 11 10 10 8 7 5 4 4 4 4 4 5
3 3 2 1 2 3 2 2 2 2 3 2 2 3 2 2 2 2 6 8 9 9 8 7 8 13 15 16 11 10 14 12 7 6 5 5 5 4 4 5 6 5 4
2 2 1 1 1 2 2 2 2 2 3 3 4 4 4 3 3 5 8 11 11 8 7 11 14 16 15 10 9 12 10 6 5 5 5 4 4 4 5 4 5 5 5
1 0 0 0 0 1 1 2 3 5 5 5 5 5 5 4 6 7 8 9 10 9 9 12 14 13 9 8 8 6 4 4 4 4 4 4 4 4 4 4 4 5 5
1 2 1 0 0 1 2 4 4 6 5 5 6 6 6 6 7 9 7 7 8 8 10 8 6 6 6 6 5 5 4 4 4 4 3 4 4 4 4 4 4 4 4
2 3 2 1 1 1 3 4 6 5 5 4 3 4 4 5 8 10 11 12 13 12 8 6 7 6 6 6 6 6 5 4 4 4 3 4 4 3 4 4 4 4 4
2 3 4 3 2 2 2 2 3 3 3 2 1 3 5 8 9 10 12 13 13 10 5 5 6 6 6 6 6 5 5 4 3 3 3 3 3 3 3 4 4 4 4
2 1 2 2 2 2 2 2 3 2 2 2 3 4 6 7 8 9 11 10 6 5 4 5 6 6 6 6 5 4 4 4 4 3 3 3 3 3 3 3 3 4 4
3 1 2 2 2 2 3 3 4 4 3 3 2 0 4 6 6 7 8 5 5 6 6 6 6 6 6 6 5 4 4 4 4 3 3 3 3 3 3 3 3 4 4
0 1 2 3 2 3 3 3 4 4 4 3 3 4 4 5 4 5 5 5 5 6 6 7 7 6 6 6 5 5 4 5 5 4 3 3 3 2 3 3 3 2 3
2 4 3 2 3 4 4 4 4 4 4 3 3 3 4 4 4 5 5 5 5 6 6 6 6 6 6 6 6 6 6 5 6 6 5 4 3 3 2 3 3 2 2
3 2 2 4 5 5 3 3 3 3 4 3 2 2 2 3 4 4 5 5 5 5 5 5 6 6 6 6 6 6 7 7 7 7 6 5 4 4 3 3 3 3 2
2 3 4 4 3 3 1 3 4 4 4 4 3 3 3 3 4 4 5 5 5 5 5 5 5 6 6 6 6 6 8 8 8 8 7 6 5 4 4 4 4 4 5
3 3 3 4 3 3 4 4 4 5 5 4 4 4 3 3 4 5 5 5 5 5 5 5 6 9 11 9 7 8 8 7 8 7 9 7 5 4 4 5 5 5 4
4 3 3 5 4 5 5 5 5 5 4 4 4 3 3 3 4 4 5 5 6 6 7 6 6 9 12 14 13 11 11 10 9 8 8 6 6 7 6 6 5 6 6
5 4 4 5 5 4 5 5 5 4 4 4 4 3 4 4 4 5 5 5 5 5 6 6 10 13 14 12 14 13 12 13 12 11 7 5 6 7 7 5 7 6 7
Wind_Direction
79 80 82 83 84 85 84 83 84 86 87 87 86 82 78 68 51 27 2 9 10 2 346 348 345 331 321 327 318 310 311 316 309 309 312 316 316 304 300 292 288 281 278
84 84 83 85 85 86 88 89 88 85 83 82 79 71 60 56 41 24 8 10 1 354 348 339 331 327 333 319 318 317 314 310 300 302 304 301 298 297 289 285 292 294 294
88 86 84 84 84 84 84 83 82 79 74 69 66 58 45 38 35 27 14 2 354 344 336 327 322 316 311 316 317 309 306 307 307 301 298 295 294 294 296 295 295 293 295
86 84 81 79 80 80 80 76 74 76 73 58 50 47 43 43 39 26 8 349 343 335 324 317 311 310 311 322 313 307 315 319 307 299 296 298 297 297 302 303 302 297 297
86 86 85 85 83 80 75 68 60 52 56 45 41 37 40 59 43 28 358 346 338 325 319 317 313 312 305 295 299 313 313 304 303 300 300 304 302 307 305 302 301 299 289
87 87 85 84 83 83 80 70 60 50 41 34 33 29 33 58 60 35 4 339 323 314 317 323 316 310 336 318 303 300 290 289 293 294 296 295 298 300 303 304 302 301 297
85 87 86 83 77 70 69 64 56 45 35 28 23 23 64 86 57 19 354 326 308 311 320 321 322 329 351 353 332 316 304 296 287 286 287 289 296 299 304 305 301 300 297
89 88 87 85 79 70 63 57 50 41 25 16 16 17 51 97 62 6 341 321 313 322 322 315 316 323 20 353 326 315 307 307 304 299 285 290 297 301 302 298 295 294 290
88 84 80 78 74 64 54 46 43 23 12 0 21 14 29 107 107 355 346 324 327 331 322 320 323 327 9 343 324 314 311 311 313 317 308 297 292 290 288 292 295 297 300
86 79 71 64 58 54 45 35 30 7 6 1 18 8 0 45 153 338 341 332 335 331 321 321 333 337 332 325 320 313 308 311 319 318 314 309 304 298 295 281 287 296 301
92 88 80 66 47 69 48 27 7 357 359 357 1 359 3 13 154 234 315 330 335 326 320 322 324 327 321 315 310 296 292 304 308 303 304 308 311 313 313 307 293 287 297
97 89 80 41 9 53 27 8 347 341 342 352 356 353 359 25 32 322 309 310 310 313 314 319 322 321 315 310 304 292 297 303 296 299 308 317 321 323 321 318 314 307 290
85 72 62 48 32 25 355 357 3 11 4 2 2 358 2 9 13 351 338 328 322 314 316 320 315 308 308 305 301 302 302 298 303 314 321 321 319 317 318 320 328 330 328
62 340 247 159 311 80 18 18 34 26 14 3 8 4 360 2 16 0 345 336 336 332 334 321 311 304 304 302 307 312 310 312 315 318 324 324 332 338 339 340 341 340 339
350 326 324 352 302 140 97 53 49 67 52 19 11 1 360 356 358 337 327 326 326 320 321 310 316 329 336 338 337 335 330 331 330 333 340 344 347 348 348 347 348 349 349
343 333 328 338 13 45 115 120 73 96 118 92 47 358 354 2 330 325 324 319 314 313 317 319 327 333 337 335 333 335 339 346 346 347 356 355 352 350 351 352 357 360 359
344 345 333 348 14 34 55 116 136 138 167 185 280 315 321 323 323 324 325 323 313 313 316 323 329 331 330 330 333 338 343 347 348 355 360 358 353 357 358 360 4 2 4
338 78 306 325 349 21 29 38 64 94 128 155 213 260 307 321 321 322 325 327 331 340 336 332 331 330 331 333 337 342 347 351 358 4 360 360 359 1 1 1 8 6 3
329 13 328 321 352 44 47 45 57 55 53 59 64 354 324 324 313 316 326 338 340 340 341 339 336 333 334 337 344 350 354 358 3 2 3 4 360 1 1 2 11 7 4
164 72 315 325 31 63 58 51 57 58 55 47 37 21 0 347 346 346 348 344 341 342 342 340 335 334 337 342 349 355 4 8 6 3 359 360 360 2 6 8 11 11 6
144 157 212 295 50 58 52 53 53 54 60 49 46 38 351 340 343 346 344 340 341 339 335 333 332 337 345 348 354 3 11 10 5 356 357 356 359 4 4 3 5 16 17
347 89 81 62 65 56 41 59 60 61 65 55 44 52 355 341 348 344 341 340 336 328 324 325 336 345 351 352 358 7 12 8 0 352 349 353 356 357 360 5 7 12 23
305 61 87 84 94 125 110 70 66 67 68 60 44 34 27 7 352 348 345 338 331 330 333 336 346 359 3 359 7 22 13 358 341 336 339 343 352 358 359 2 14 24 26
48 55 78 87 77 85 78 76 72 68 69 65 54 39 24 6 354 350 344 338 339 341 347 355 9 16 22 18 12 17 10 346 331 326 328 331 350 8 9 7 10 19 31
46 35 59 77 65 72 78 76 73 70 68 67 58 40 21 14 7 2 353 352 357 3 11 18 24 21 19 22 18 7 350 342 342 335 324 334 6 13 14 14 15 19 24
51 36 57 78 72 66 77 82 77 73 69 68 63 49 32 25 20 13 8 5 5 11 15 22 35 33 20 12 7 1 354 350 349 343 335 352 19 23 12 14 21 27 31